Vertical_Velocity
-3 -7 -7 -7 2 -6 -8 3 -1 -3 5 -6 1 -1 0 -1 1 4 3 2 -1 1 -1 -5 1 -2 -5 -3 -2 -3 1 -1 1 -0 4 0 -2 1 -0 -2 -2 -0 -0
6 -1 -4 -6 -5 -1 -9 5 -2 3 2 -0 3 -3 -1 -1 -3 6 1 2 0 0 -2 3 -2 2 -2 -1 -6 -1 -2 -0 -2 -1 4 -0 -1 -2 -2 -3 -1 -5 -2
1 1 -2 1 -1 4 2 1 -3 -5 -0 -9 -9 -1 -2 -1 -4 -0 -1 -0 6 0 -2 -2 -0 4 -1 1 1 -3 -3 -0 3 -2 -4 -0 0 2 3 0 3 -0 -2
-3 2 4 2 6 4 4 4 2 1 -3 -5 0 -2 -1 -6 2 1 -3 -6 -3 -2 -0 2 1 -0 -3 1 -0 -0 0 2 -2 5 3 0 1 -3 -0 0 1 -1 3
-2 -1 6 4 -1 0 1 0 4 2 6 -2 -5 -3 4 3 5 7 -4 -2 2 5 1 2 4 -2 -4 -1 3 -0 1 2 1 0 3 4 -4 1 1 0 -3 -4 -6
3 3 1 -0 2 2 0 15 18 7 -1 1 2 3 33 -0 7 7 4 1 -5 3 2 5 6 -1 1 -5 -4 -2 -8 -1 2 -2 -3 -4 -1 -2 1 8 -0 -2 -3
-1 2 4 3 -1 -1 6 13 17 24 21 64 5 1 49 9 19 13 7 11 5 9 0 0 4 4 2 1 -1 1 -0 5 2 -0 2 1 -1 2 -3 -6 -2 0 2
1 -0 -1 -0 2 -2 1 6 16 12 6 4 15 23 8 17 11 34 19 28 -4 15 5 8 10 6 7 5 3 -0 3 2 7 -2 -1 -1 -1 5 2 -1 1 -1 -1
-0 -3 -2 -2 1 -3 -12 -3 -2 5 11 17 1 16 26 30 11 23 24 18 -0 4 14 17 14 8 12 20 7 6 -5 0 -2 -2 2 2 4 1 6 -6 -3 -3 -1
2 3 4 1 -5 -6 -3 -3 -3 5 -2 2 7 12 18 3 29 28 17 5 6 26 9 12 7 -2 7 -5 -1 -5 -1 -3 0 6 -4 9 4 -4 -2 2 3 -1 -3
-2 -1 -2 -1 0 0 -1 -4 -2 5 -5 -7 3 -4 -2 1 17 6 11 6 27 15 -5 8 18 -1 -18 -4 -13 -5 -0 4 5 -0 6 -6 -1 1 -4 -2 -3 -1 -2
-1 -0 -0 1 1 2 4 4 0 -3 3 21 9 7 -0 -11 3 -4 13 9 5 0 1 3 -6 -8 -1 -9 -5 4 -2 4 5 -2 3 -3 2 -4 -2 -1 -2 -2 0
-1 0 1 3 1 0 -0 -1 0 1 2 -1 -0 -4 -6 -9 -8 1 -5 -7 -8 6 -2 2 -6 -4 -3 -3 1 -1 5 13 4 -1 1 -2 -2 1 -1 0 -0 -0 -2
5 6 0 1 -0 -0 -1 -1 -1 -2 -1 -2 -3 -7 -3 12 1 -2 -3 -0 -5 2 5 1 -0 -2 3 -1 9 -1 0 -3 3 2 -4 -3 2 2 0 -0 1 1 -1
3 -5 -7 -2 -2 -1 -1 -1 1 -0 1 1 0 -0 -4 -1 2 0 4 12 7 3 3 3 1 2 -2 2 2 1 4 3 7 -1 -1 -0 2 1 0 1 0 2 2
2 4 8 9 5 2 2 0 -0 0 1 1 2 0 3 0 1 1 5 5 5 3 0 1 -1 3 3 3 3 5 3 1 2 0 1 -0 0 1 1 -0 1 -1 2
0 -1 -0 3 2 -0 -0 -2 -2 -0 -1 -1 -0 -1 -1 -0 -0 3 3 -0 -2 -1 1 0 -0 1 2 1 2 3 4 3 -0 -2 2 3 -2 -1 2 3 3 3 2
1 -0 -0 -0 -0 -1 -1 -3 -3 -2 -2 -2 -3 -2 -3 -6 -4 -3 -4 -4 -6 -1 -4 -2 -0 -1 0 -0 0 -0 -2 -0 1 2 2 5 2 2 1 4 2 0 2
-1 -3 -2 -2 -1 -1 -1 -2 -2 -2 -1 -0 -1 -1 -1 -1 -2 -2 -3 -1 -1 2 0 2 2 1 2 2 1 1 2 2 1 1 3 1 1 0 2 2 3 0 0
2 1 1 -1 -1 -1 -1 0 1 1 1 1 1 -1 0 0 1 2 1 2 2 1 2 1 1 1 1 0 0 3 1 2 3 2 2 1 1 3 5 3 2 3 0
0 0 0 0 -0 -0 -1 -1 -0 -0 -1 -1 -0 1 2 0 0 1 1 1 1 1 2 3 4 2 2 3 4 2 3 3 5 6 5 5 3 5 1 2 -1 -1 -2
0 0 1 2 1 1 2 2 2 2 2 2 2 2 2 0 -1 -0 -0 -1 -1 -1 -1 -1 -0 -0 -0 -0 -0 0 -0 0 0 2 2 -1 0 -2 -0 -1 -0 -0 -1
0 1 1 0 1 1 2 1 1 1 1 2 2 2 2 1 2 3 3 2 2 2 2 3 4 4 3 2 2 2 2 3 2 -0 1 0 0 -1 -1 -1 -0 0 1
-0 -1 -1 -2 -1 -1 -2 -2 -2 1 0 -2 -2 -3 -3 -2 -1 -0 -2 -2 -2 -1 -0 -1 -1 -0 -0 -0 0 1 1 1 -0 -0 -0 0 -0 -2 -1 1 2 -1 0
-1 -3 -3 -4 -6 -6 -6 -5 -5 -5 -4 -3 -4 -3 -3 -2 -2 -3 -3 -2 -2 -1 -2 -0 1 1 1 1 2 2 1 1 2 -1 0 0 1 2 3 1 1 3 1
-1 -1 -1 -1 -1 -1 -2 -4 -5 -6 -6 -7 -6 -6 -5 -6 -5 -3 -4 -3 -0 1 -0 -1 -0 1 0 1 1 1 2 2 2 2 1 2 2 3 2 2 -1 1 0
Height
5674 5682 5687 5694 5706 5711 5716 5722 5727 5731 5736 5742 5746 5748 5753 5757 5758 5759 5761 5764 5766 5767 5769 5768 5769 5770 5770 5770 5770 5770 5769 5769 5767 5766 5764 5763 5761 5758 5757 5754 5751 5748 5746
5661 5667 5675 5682 5689 5695 5704 5712 5716 5720 5725 5729 5731 5736 5740 5743 5746 5747 5750 5752 5753 5754 5755 5757 5757 5758 5759 5760 5760 5760 5758 5757 5756 5753 5752 5751 5750 5748 5746 5744 5742 5738 5735
5647 5654 5661 5667 5676 5681 5689 5698 5703 5708 5712 5717 5719 5723 5725 5728 5731 5736 5736 5738 5740 5742 5742 5743 5743 5745 5746 5745 5746 5746 5746 5745 5744 5742 5740 5739 5738 5735 5733 5730 5728 5725 5722
5635 5641 5648 5655 5661 5668 5674 5681 5686 5691 5696 5703 5706 5709 5710 5716 5718 5719 5721 5721 5723 5728 5728 5728 5730 5730 5731 5733 5733 5733 5732 5732 5731 5729 5727 5726 5723 5723 5721 5717 5714 5712 5710
5625 5631 5638 5641 5646 5653 5659 5666 5673 5678 5682 5687 5691 5694 5696 5699 5700 5702 5706 5708 5710 5713 5713 5713 5715 5716 5717 5718 5719 5719 5720 5719 5719 5718 5716 5715 5713 5710 5708 5705 5703 5700 5697
5614 5619 5623 5628 5634 5640 5645 5650 5658 5664 5668 5672 5676 5681 5684 5688 5689 5689 5690 5693 5695 5697 5697 5698 5700 5701 5702 5703 5703 5704 5704 5703 5704 5702 5702 5701 5699 5697 5695 5692 5689 5686 5683
5603 5608 5613 5617 5622 5626 5630 5636 5642 5651 5654 5658 5663 5665 5669 5670 5673 5674 5676 5677 5678 5680 5682 5684 5686 5688 5689 5689 5689 5690 5691 5690 5690 5688 5687 5686 5685 5683 5681 5678 5675 5672 5668
5591 5597 5602 5607 5612 5616 5618 5621 5626 5630 5636 5641 5646 5650 5652 5655 5658 5659 5661 5660 5661 5664 5667 5669 5670 5671 5672 5672 5674 5675 5676 5676 5676 5675 5673 5672 5671 5668 5666 5664 5660 5658 5655
5581 5586 5590 5595 5599 5604 5608 5610 5614 5615 5618 5623 5628 5629 5634 5637 5642 5644 5645 5647 5649 5651 5652 5655 5654 5654 5655 5656 5657 5659 5661 5662 5662 5661 5659 5657 5655 5653 5650 5648 5646 5643 5640
5572 5574 5577 5582 5587 5592 5596 5599 5602 5603 5604 5607 5608 5613 5616 5621 5624 5628 5630 5636 5636 5639 5639 5639 5639 5641 5642 5646 5647 5647 5647 5648 5648 5646 5644 5641 5640 5638 5635 5633 5629 5627 5623
5563 5566 5569 5572 5576 5579 5582 5586 5588 5591 5593 5595 5594 5596 5600 5605 5606 5613 5616 5617 5621 5624 5626 5627 5626 5627 5629 5630 5632 5633 5632 5632 5631 5630 5627 5626 5624 5620 5619 5617 5613 5610 5608
5553 5556 5559 5561 5564 5567 5571 5575 5578 5582 5582 5582 5584 5585 5588 5592 5594 5597 5599 5604 5607 5608 5608 5610 5612 5615 5618 5618 5618 5617 5618 5618 5613 5613 5612 5609 5606 5604 5602 5599 5595 5593 5591
5542 5544 5548 5552 5554 5557 5559 5562 5566 5570 5573 5575 5576 5579 5581 5583 5584 5586 5588 5590 5594 5595 5594 5593 5595 5598 5600 5602 5602 5602 5602 5600 5597 5597 5594 5591 5589 5587 5584 5580 5579 5577 5573
5532 5537 5540 5542 5544 5546 5548 5551 5554 5556 5559 5561 5563 5563 5565 5568 5571 5573 5575 5576 5578 5579 5579 5580 5582 5584 5587 5587 5587 5587 5586 5583 5580 5579 5576 5572 5570 5568 5566 5565 5563 5560 5557
5522 5524 5527 5531 5533 5536 5538 5540 5542 5544 5547 5548 5550 5552 5554 5555 5555 5558 5560 5562 5564 5565 5565 5566 5567 5569 5569 5571 5569 5567 5567 5565 5563 5560 5556 5555 5553 5550 5549 5547 5545 5543 5539
5513 5515 5518 5521 5522 5524 5526 5529 5531 5533 5535 5536 5538 5540 5542 5543 5545 5546 5545 5546 5547 5549 5550 5551 5553 5552 5551 5551 5550 5549 5548 5546 5545 5542 5540 5539 5536 5534 5532 5531 5529 5526 5523
5501 5503 5504 5507 5509 5512 5514 5517 5519 5521 5522 5524 5525 5526 5528 5530 5530 5532 5533 5534 5534 5535 5536 5535 5535 5534 5534 5534 5533 5532 5532 5530 5527 5524 5524 5523 5519 5518 5517 5515 5513 5510 5505
5488 5490 5493 5496 5498 5500 5502 5505 5507 5508 5510 5511 5512 5513 5515 5516 5517 5518 5518 5519 5519 5519 5519 5518 5518 5518 5517 5516 5515 5514 5512 5511 5510 5509 5508 5507 5505 5503 5501 5499 5495 5491 5487
5477 5480 5482 5484 5486 5488 5490 5491 5493 5493 5494 5495 5496 5497 5498 5499 5500 5500 5501 5501 5501 5502 5501 5501 5501 5501 5500 5499 5498 5498 5497 5495 5495 5494 5492 5490 5488 5486 5484 5480 5476 5473 5469
5467 5468 5470 5471 5473 5473 5475 5476 5477 5478 5479 5479 5480 5481 5481 5482 5483 5484 5484 5484 5484 5483 5484 5484 5484 5484 5484 5483 5483 5482 5481 5480 5478 5476 5474 5472 5470 5468 5465 5461 5458 5454 5450
5455 5456 5457 5458 5459 5460 5461 5462 5463 5464 5465 5465 5466 5467 5468 5468 5469 5469 5469 5469 5469 5469 5469 5469 5469 5468 5467 5467 5465 5464 5463 5462 5461 5459 5456 5454 5451 5449 5446 5442 5439 5436 5432
5444 5445 5446 5446 5447 5448 5448 5449 5450 5450 5451 5451 5452 5453 5453 5454 5454 5454 5454 5454 5454 5453 5453 5453 5452 5451 5450 5449 5448 5447 5445 5444 5442 5440 5438 5435 5432 5430 5427 5424 5420 5417 5414
5433 5434 5435 5435 5436 5437 5437 5438 5438 5439 5439 5439 5439 5439 5439 5439 5439 5439 5439 5438 5438 5437 5436 5436 5434 5433 5431 5430 5429 5427 5425 5424 5421 5418 5417 5415 5413 5411 5408 5405 5402 5399 5396
5423 5423 5423 5424 5425 5425 5425 5425 5425 5425 5424 5424 5424 5423 5423 5423 5422 5421 5420 5420 5419 5418 5417 5416 5415 5413 5411 5409 5407 5405 5403 5401 5400 5398 5396 5395 5393 5391 5389 5387 5384 5381 5380
5409 5409 5409 5409 5409 5409 5409 5408 5407 5406 5406 5405 5404 5403 5402 5401 5400 5399 5398 5396 5395 5394 5392 5391 5389 5388 5387 5386 5384 5383 5381 5380 5379 5377 5376 5375 5374 5373 5371 5369 5367 5365 5363
5394 5393 5393 5392 5391 5391 5389 5388 5386 5385 5384 5383 5381 5380 5379 5377 5375 5374 5372 5371 5370 5369 5367 5366 5364 5363 5362 5362 5360 5359 5358 5358 5357 5356 5356 5355 5354 5353 5353 5352 5351 5350 5349